Vorticity
3 4 5 8 5 5 11 7 2 5 2 1 8 -2 4 10 8 7 7 7 12 9 12 7 7 16 6 4 3 4 5 3 3 4 6 7 3 4 2 5 5 -15 20 6 8 6 1 3 1
4 3 2 6 5 5 13 4 5 4 7 11 7 -2 1 7 8 5 5 6 6 5 8 10 10 9 8 4 1 6 2 2 0 8 4 5 5 8 6 5 8 12 5 18 15 9 18 4 10
3 3 4 5 8 10 12 2 4 7 4 10 3 13 12 -2 7 7 8 5 4 2 3 5 11 13 6 7 3 3 11 10 4 2 28 3 4 6 4 4 6 9 15 13 3 10 1 15 4
2 2 0 3 4 10 10 3 2 7 0 -6 4 16 3 4 8 9 8 8 2 4 5 3 7 8 11 12 4 -0 -6 20 -3 39 -2 18 -1 -3 2 2 4 10 11 5 19 12 13 6 4
2 1 1 3 8 11 8 2 2 7 4 -3 8 9 4 5 10 7 5 8 6 5 5 5 5 4 8 5 27 20 0 5 8 -2 17 33 22 15 8 8 5 17 13 15 10 6 -0 11 10
1 -0 -1 5 10 11 4 4 7 5 -1 5 9 5 6 9 8 9 10 9 7 6 5 6 8 12 7 12 11 25 25 18 18 12 3 -4 -0 13 10 10 17 9 8 6 7 -1 2 2 7
1 -1 5 7 10 9 5 3 7 4 6 -8 8 4 9 8 12 14 15 16 16 13 10 10 11 10 -3 7 7 6 5 10 7 10 13 10 14 9 15 7 4 0 5 10 5 11 10 -0 9
2 4 2 6 10 6 7 4 4 5 6 9 8 8 11 10 15 15 15 15 15 13 11 8 7 7 5 6 4 8 8 8 11 17 14 17 14 8 9 10 -0 -1 -1 5 9 9 8 15 4
4 -0 1 8 11 4 3 6 3 3 6 12 5 10 8 10 10 6 8 8 9 7 8 6 6 5 5 9 11 6 5 6 7 3 2 4 6 3 20 -1 4 5 10 5 5 6 5 4 2
1 2 5 6 10 5 5 5 4 -4 2 9 7 9 8 8 4 6 6 8 8 8 8 7 6 7 10 12 6 5 9 5 -0 2 7 3 6 7 8 11 12 2 17 5 6 2 3 3 3
3 4 5 5 9 4 4 6 4 -3 5 10 11 8 6 7 6 7 7 8 8 9 9 10 11 11 10 8 10 5 7 7 13 10 5 6 3 6 13 7 4 21 13 1 7 9 5 3 2
7 4 4 3 9 1 3 4 6 8 -14 9 16 6 6 6 5 6 8 8 7 8 8 9 11 11 11 10 10 8 5 6 12 12 11 10 4 8 1 5 2 17 9 16 1 6 5 5 6
5 3 4 3 8 5 4 4 3 2 -5 4 18 3 10 8 6 6 6 5 5 6 7 7 8 7 6 6 4 6 7 8 7 6 10 1 7 3 2 7 -2 -3 2 12 -5 3 9 6 7
5 4 4 3 7 3 3 3 1 4 6 3 14 5 9 9 6 5 5 4 4 4 6 7 6 7 6 5 5 6 5 5 4 6 6 7 5 3 4 5 1 0 11 -2 10 11 4 -0 2
6 5 4 5 6 4 1 5 0 -1 6 4 13 5 8 7 4 4 3 3 2 3 3 4 7 5 7 6 6 6 7 9 8 8 9 8 8 9 10 10 10 12 6 8 7 4 5 7 7
6 -0 5 6 5 5 1 3 3 4 4 3 12 5 7 6 5 6 3 3 1 2 2 2 3 5 6 4 3 4 4 5 5 6 5 4 4 4 3 3 4 4 4 5 5 5 5 5 5
4 4 6 6 3 2 5 1 1 2 5 4 11 9 7 5 4 6 6 4 3 3 3 3 3 3 2 4 5 5 4 4 3 3 3 3 3 3 3 3 3 4 4 4 5 5 4 5 5
8 2 5 7 5 2 7 3 2 2 2 3 9 11 7 5 5 4 5 7 5 4 3 2 3 4 4 4 3 2 2 2 2 2 2 2 2 3 3 4 5 5 6 7 6 5 5 4 4
4 4 6 5 4 1 4 8 3 2 1 4 12 10 5 8 6 5 5 6 7 5 6 5 4 5 4 4 4 4 4 4 4 4 4 4 4 4 4 3 2 3 4 5 4 4 5 5 4
3 5 4 7 5 5 6 3 6 5 3 2 7 14 6 8 5 4 6 7 6 6 6 6 7 7 6 6 5 4 3 4 5 5 4 5 5 5 6 6 7 9 8 5 3 2 3 4 5
2 6 5 5 1 5 0 3 2 6 6 5 10 7 11 9 7 3 4 4 5 3 4 6 7 9 8 8 8 7 6 5 5 5 6 6 5 5 5 4 4 5 5 5 6 8 9 7 4
5 5 4 5 7 -1 2 7 0 2 2 7 3 6 13 8 7 2 3 1 2 2 7 4 6 7 8 8 11 9 10 10 8 9 8 11 12 11 11 10 10 8 7 6 4 4 5 5 6
9 6 4 8 5 5 5 4 2 4 7 6 4 6 8 9 9 3 3 1 0 3 2 3 5 6 6 7 7 8 9 8 7 6 5 4 4 7 9 12 15 13 10 9 8 7 8 8 7
7 9 5 9 13 0 8 7 6 6 1 8 6 4 10 8 10 5 4 1 2 3 3 3 2 3 7 8 7 7 6 6 5 6 5 5 4 3 2 6 9 13 15 14 12 10 9 8 7
18 9 4 7 9 15 -3 5 5 0 5 4 5 8 6 8 10 9 5 4 2 1 0 1 1 1 3 6 8 9 6 5 4 4 4 4 4 4 5 3 3 4 6 10 12 12 13 11 9
6 10 11 -6 -1 2 11 2 4 2 6 2 3 6 12 10 10 11 9 6 2 3 2 1 2 3 1 3 4 7 10 6 4 4 3 4 3 2 4 4 4 3 3 4 6 6 8 10 11
31 2 6 18 6 6 4 15 1 -0 2 3 2 5 9 7 10 7 12 12 7 5 3 1 1 2 1 1 2 4 6 8 6 5 4 4 4 4 3 3 3 4 3 3 3 4 6 6 6
12 16 22 2 7 9 5 8 10 15 4 4 3 8 3 8 6 5 8 5 4 2 3 2 0 1 1 1 1 2 3 4 6 5 6 5 5 4 4 3 3 2 3 3 3 3 3 4 6
6 3 11 13 13 10 1 8 4 13 8 8 4 6 6 10 6 12 2 6 7 7 4 3 0 -1 -0 -0 -0 0 1 1 2 4 3 4 4 6 6 4 3 2 2 2 2 2 3 3 4
1 9 3 5 10 16 10 6 5 10 14 2 9 8 6 8 12 4 12 6 6 7 8 7 5 4 1 0 1 -0 -1 -1 -2 2 5 2 2 2 4 4 5 3 2 2 2 2 2 2 4
Height
5757 5761 5763 5767 5771 5773 5780 5783 5783 5788 5792 5794 5797 5800 5803 5803 5804 5807 5806 5807 5810 5813 5814 5817 5817 5819 5823 5825 5828 5830 5833 5835 5834 5837 5839 5841 5842 5844 5845 5847 5847 5848 5850 5852 5853 5854 5856 5857 5858
5750 5754 5757 5761 5765 5771 5778 5780 5782 5785 5790 5792 5795 5798 5800 5801 5802 5803 5805 5807 5809 5811 5813 5815 5816 5818 5821 5824 5826 5828 5831 5833 5834 5835 5836 5839 5841 5842 5844 5846 5847 5847 5849 5850 5852 5853 5854 5857 5858
5743 5748 5753 5755 5760 5771 5776 5778 5779 5783 5787 5790 5793 5797 5799 5799 5799 5800 5804 5806 5808 5810 5813 5814 5815 5817 5819 5823 5825 5827 5829 5831 5833 5834 5832 5835 5838 5841 5843 5846 5847 5848 5848 5851 5852 5852 5854 5856 5857
5737 5741 5746 5750 5758 5769 5773 5776 5776 5781 5785 5788 5790 5795 5795 5795 5797 5799 5803 5804 5806 5809 5812 5813 5815 5817 5819 5821 5823 5825 5828 5830 5832 5831 5832 5831 5834 5839 5843 5845 5846 5849 5850 5850 5851 5852 5854 5856 5859
5729 5734 5740 5747 5755 5765 5770 5772 5775 5779 5784 5786 5789 5791 5792 5793 5795 5797 5800 5803 5805 5808 5811 5813 5814 5817 5818 5820 5820 5822 5824 5828 5830 5832 5831 5830 5835 5839 5842 5845 5847 5848 5849 5849 5852 5852 5854 5857 5858
5721 5728 5735 5743 5753 5762 5766 5769 5773 5779 5782 5786 5788 5789 5790 5792 5794 5795 5798 5801 5804 5807 5809 5812 5813 5816 5818 5820 5820 5822 5822 5826 5828 5829 5830 5833 5836 5839 5841 5844 5848 5849 5850 5850 5852 5852 5855 5857 5858
5714 5724 5733 5742 5751 5757 5762 5766 5773 5778 5780 5784 5787 5787 5789 5791 5793 5795 5797 5799 5802 5805 5808 5810 5813 5815 5818 5819 5821 5824 5825 5827 5828 5830 5832 5834 5837 5840 5843 5846 5848 5850 5852 5852 5853 5853 5855 5856 5858
5709 5719 5726 5738 5744 5754 5760 5764 5771 5775 5778 5782 5785 5786 5788 5790 5793 5796 5797 5798 5802 5805 5808 5809 5812 5815 5818 5821 5824 5825 5826 5827 5829 5831 5833 5835 5837 5840 5844 5846 5849 5850 5852 5853 5853 5854 5856 5857 5859
5700 5710 5722 5733 5741 5750 5753 5761 5767 5771 5777 5781 5783 5785 5788 5791 5794 5797 5800 5801 5803 5806 5808 5810 5813 5816 5819 5822 5824 5826 5827 5828 5830 5832 5835 5837 5839 5842 5844 5846 5849 5852 5853 5855 5855 5857 5858 5860 5861
5692 5707 5724 5732 5741 5748 5752 5760 5767 5772 5777 5780 5783 5784 5787 5792 5795 5797 5801 5803 5805 5807 5810 5812 5814 5817 5820 5822 5825 5827 5829 5830 5832 5834 5836 5838 5840 5843 5845 5848 5850 5853 5855 5856 5857 5858 5860 5861 5862
5690 5706 5718 5729 5739 5744 5748 5756 5764 5770 5776 5778 5779 5782 5787 5791 5794 5798 5800 5802 5804 5808 5811 5813 5816 5818 5820 5823 5826 5828 5830 5832 5833 5835 5838 5839 5843 5845 5846 5849 5851 5851 5854 5856 5858 5859 5861 5862 5863
5688 5700 5711 5725 5734 5738 5742 5752 5761 5769 5773 5773 5777 5781 5785 5790 5794 5798 5801 5804 5807 5809 5811 5814 5817 5819 5821 5824 5827 5830 5832 5833 5835 5837 5839 5841 5844 5846 5848 5850 5851 5852 5855 5856 5859 5859 5860 5861 5862
5680 5692 5704 5719 5730 5734 5738 5748 5759 5766 5769 5770 5777 5781 5786 5790 5794 5798 5801 5802 5807 5810 5812 5814 5818 5821 5823 5826 5828 5830 5833 5835 5837 5839 5841 5844 5846 5848 5850 5851 5853 5854 5856 5858 5859 5860 5860 5860 5861
5676 5687 5700 5714 5724 5730 5734 5744 5753 5760 5765 5770 5775 5780 5785 5789 5795 5799 5803 5805 5808 5811 5813 5815 5820 5822 5825 5827 5829 5832 5834 5837 5838 5840 5843 5845 5847 5849 5850 5852 5854 5855 5857 5858 5859 5860 5861 5860 5861
5668 5679 5695 5709 5719 5725 5731 5741 5749 5757 5764 5769 5775 5779 5784 5790 5794 5798 5802 5806 5808 5811 5814 5817 5820 5823 5826 5829 5830 5832 5835 5838 5840 5842 5845 5846 5848 5849 5851 5852 5854 5856 5857 5858 5859 5860 5860 5860 5860
5658 5674 5690 5704 5715 5722 5727 5737 5746 5752 5760 5766 5771 5778 5783 5789 5792 5797 5802 5805 5808 5811 5815 5818 5822 5824 5827 5830 5832 5834 5836 5839 5841 5844 5846 5848 5849 5850 5851 5853 5855 5856 5857 5858 5859 5859 5859 5858 5858
5648 5669 5687 5700 5711 5718 5724 5734 5743 5750 5757 5764 5770 5776 5781 5787 5792 5797 5800 5805 5809 5811 5814 5818 5822 5825 5828 5831 5833 5835 5837 5839 5842 5844 5846 5848 5850 5851 5852 5853 5854 5855 5856 5857 5857 5857 5858 5858 5857
5649 5668 5684 5698 5707 5713 5721 5733 5741 5748 5756 5762 5767 5773 5779 5786 5791 5795 5799 5804 5808 5811 5813 5817 5821 5825 5828 5831 5833 5836 5837 5840 5841 5843 5845 5847 5848 5850 5851 5852 5853 5854 5855 5855 5856 5856 5856 5856 5856
5662 5674 5686 5697 5706 5714 5719 5730 5738 5745 5751 5757 5763 5770 5777 5783 5788 5792 5797 5801 5807 5810 5814 5817 5821 5824 5828 5831 5833 5835 5836 5838 5840 5842 5843 5845 5846 5847 5849 5849 5850 5851 5852 5852 5853 5853 5854 5854 5853
5657 5670 5681 5694 5702 5710 5718 5727 5733 5742 5751 5758 5763 5767 5774 5780 5787 5791 5797 5800 5805 5809 5812 5816 5819 5823 5826 5829 5831 5833 5835 5837 5839 5840 5841 5843 5843 5844 5846 5846 5847 5848 5849 5849 5849 5850 5850 5850 5850
5655 5669 5680 5692 5701 5710 5717 5723 5728 5735 5742 5748 5756 5760 5768 5776 5783 5789 5794 5799 5803 5806 5811 5814 5817 5820 5823 5825 5828 5831 5833 5835 5836 5837 5838 5840 5840 5841 5842 5842 5843 5844 5844 5845 5845 5845 5846 5846 5846
5657 5670 5683 5691 5701 5703 5711 5719 5724 5732 5740 5746 5753 5759 5765 5772 5779 5785 5791 5795 5800 5803 5807 5811 5814 5817 5819 5822 5825 5827 5829 5831 5833 5834 5835 5836 5837 5837 5838 5838 5839 5839 5840 5841 5841 5841 5841 5841 5841
5659 5670 5682 5692 5700 5705 5710 5717 5724 5731 5737 5744 5751 5757 5762 5769 5776 5782 5787 5792 5795 5799 5803 5807 5810 5814 5816 5818 5821 5823 5826 5827 5829 5831 5832 5833 5834 5835 5835 5835 5835 5835 5836 5836 5836 5836 5836 5836 5836
5660 5671 5679 5688 5694 5698 5705 5712 5719 5726 5737 5743 5749 5754 5759 5766 5772 5778 5783 5787 5792 5796 5801 5804 5808 5810 5813 5815 5817 5819 5821 5823 5825 5827 5829 5830 5830 5831 5832 5832 5832 5831 5831 5831 5831 5831 5831 5831 5830
5658 5665 5669 5676 5682 5688 5699 5708 5718 5723 5734 5742 5748 5754 5758 5763 5768 5774 5779 5784 5789 5794 5798 5801 5803 5806 5808 5811 5812 5814 5816 5819 5821 5823 5825 5826 5827 5827 5828 5829 5829 5828 5828 5827 5827 5826 5826 5826 5825
5655 5663 5665 5674 5684 5691 5698 5698 5708 5717 5725 5732 5740 5747 5751 5758 5764 5769 5773 5778 5783 5787 5791 5795 5797 5800 5802 5804 5807 5809 5812 5814 5816 5819 5820 5821 5822 5824 5824 5825 5825 5825 5824 5824 5823 5822 5821 5820 5819
5657 5663 5673 5680 5684 5688 5692 5697 5705 5713 5718 5726 5732 5738 5744 5750 5756 5762 5766 5770 5775 5779 5783 5786 5789 5790 5794 5798 5802 5804 5808 5810 5812 5813 5814 5816 5818 5819 5820 5820 5820 5820 5819 5819 5818 5817 5816 5816 5814
5657 5664 5667 5671 5676 5681 5687 5694 5701 5710 5714 5721 5727 5733 5738 5741 5746 5751 5756 5761 5765 5768 5772 5776 5781 5786 5789 5794 5798 5800 5802 5805 5807 5809 5810 5811 5812 5813 5814 5815 5815 5815 5814 5814 5813 5812 5811 5810 5809
5653 5660 5665 5669 5673 5678 5683 5689 5699 5704 5710 5715 5722 5727 5733 5737 5741 5746 5750 5754 5759 5763 5766 5770 5774 5779 5784 5787 5790 5794 5796 5799 5801 5803 5804 5805 5805 5807 5808 5808 5809 5809 5808 5808 5807 5806 5805 5804 5803
5650 5657 5661 5664 5670 5675 5678 5686 5692 5698 5704 5709 5714 5719 5725 5731 5735 5740 5744 5748 5753 5756 5760 5764 5768 5772 5776 5779 5782 5785 5787 5790 5794 5796 5796 5797 5797 5798 5799 5800 5801 5802 5801 5801 5801 5799 5798 5797 5796